Home   Weather   Emmerich am Rhein   Past weeks

Flag for Germany Past Weather in Emmerich am Rhein, North Rhine-Westphalia, Germany — Yesterday and Last 2 Weeks

Now
39 °F

Clear.


Feels Like: 36 °F
Forecast: 36 / 53 °F
Wind: 5 mph from Southwest

Location: Niederrhein

Current Time: Apr 28, 2017 at 6:36:45 am

Latest Report: Apr 28, 2017 at 6:20 am


Visibility: 10 mi

Pressure: 29.95 "Hg

Humidity: 81%

Dew Point: 34 °F

Location of Emmerich am RheinLocation

Past Weather in Emmerich am Rhein — Graph

°F

Emmerich am Rhein Temperature Yesterday

Maximum temperature yesterday: 52 °F (at 1:50 pm)
Minimum temperature yesterday: 32 °F (at 6:50 am)
Average temperature yesterday: 45 °F

High & Low Weather Summary for the Past Weeks

 TemperatureHumidityPressure
High59 °F (Apr 21, 1:50 pm)100% (Apr 13, 5:20 am)30.63 "Hg (Apr 13, 5:20 am)
Low27 °F (Apr 20, 6:50 am)28% (Apr 20, 4:20 pm)29.71 "Hg (Apr 25, 4:50 am)
Average46 °F66%30.15 "Hg
* Reported Apr 13 5:20 am — Apr 28 5:20 am, Emmerich am Rhein, Weather by CustomWeather, © 2017

Note: Actual official high and low records may vary slightly from our data, if they occured in-between our weather recording intervals... More about our weather records

Advertising

Emmerich am Rhein Weather History for the Previous 24 Hours

Scroll right to see more
 ConditionsComfort  
Time TempWeatherWind HumidityBarometerVisibility
5:20 am
Fri, Apr 28
39 °FPassing clouds.5 mph81%29.95 "HgN/A
4:50 am39 °FPassing clouds.6 mph81%29.95 "HgN/A
11:50 pm
Thu, Apr 27
37 °FClear.No wind81%29.98 "Hg10 mi
11:20 pm41 °FClear.No wind70%29.98 "Hg10 mi
10:50 pm41 °FClear.2 mph70%30.01 "Hg10 mi
10:20 pm43 °FClear.No wind71%30.01 "Hg10 mi
9:50 pm45 °FSunny.5 mph66%30.01 "Hg10 mi
9:20 pm46 °FPassing clouds.5 mph62%30.01 "HgN/A
8:50 pm46 °FScattered clouds.5 mph66%29.98 "HgN/A
8:20 pm46 °FSunny.7 mph66%29.98 "Hg10 mi
7:50 pm48 °FSunny.6 mph58%29.98 "Hg10 mi
7:20 pm46 °FPassing clouds.5 mph62%29.98 "HgN/A
6:50 pm48 °FPassing clouds.6 mph58%29.98 "HgN/A
6:20 pm50 °FPassing clouds.6 mph54%29.98 "HgN/A
5:50 pm50 °FPassing clouds.8 mph50%29.98 "HgN/A
5:20 pm50 °FPassing clouds.10 mph47%30.01 "HgN/A
4:50 pm50 °FSunny.10 mph50%30.01 "Hg10 mi
4:20 pm50 °FPassing clouds.10 mph47%30.01 "HgN/A
3:50 pm52 °FPassing clouds.8 mph47%30.01 "HgN/A
3:20 pm50 °FPassing clouds.7 mph47%30.01 "HgN/A
2:50 pm52 °FPassing clouds.10 mph41%30.01 "HgN/A
2:20 pm50 °FPassing clouds.9 mph47%30.01 "HgN/A
1:50 pm52 °FPassing clouds.8 mph44%30.01 "HgN/A
1:20 pm50 °FPassing clouds.6 mph47%30.01 "HgN/A
12:50 pm48 °FPartly sunny.7 mph46%30.01 "HgN/A
12:20 pm48 °FPartly sunny.6 mph54%30.04 "HgN/A
11:50 am48 °FPassing clouds.6 mph58%30.04 "HgN/A
11:20 am46 °FScattered clouds.3 mph57%30.04 "HgN/A
10:50 am46 °FPassing clouds.7 mph57%30.04 "HgN/A
10:20 am46 °FSunny.3 mph66%30.04 "Hg10 mi
9:50 am45 °FSunny.3 mph81%30.04 "Hg10 mi
9:20 am43 °FSunny.2 mph81%30.04 "Hg10 mi
8:50 am41 °FSunny.3 mph87%30.04 "Hg10 mi
8:20 am37 °FSunny.3 mph93%30.04 "Hg10 mi
7:50 am36 °FSunny.No wind93%30.04 "Hg10 mi
7:20 am34 °FClear.No wind93%30.01 "Hg5 mi
6:50 am32 °FFog.3 mph100%30.01 "Hg4 mi
6:20 am34 °FFog.2 mph93%30.01 "Hg2 mi
Weather by CustomWeather, © 2017

See weather overviewHow to use our weather pages